When you browse on this site, cookies collect data to enhance your experience and personalize the content and advertising you see.
Visit our Privacy Policy to learn more. By continuing to use the site, you agree to this use of cookies and data.
  • In Latvia
  • List of Countries
  • For 7 days
  • Water Temperature
  • Weather Map
  • Weather Widgets
  • user-avatar
    Login

    Hourly Weather Dobroe

    Today, 25 August, Sunday

    Time Temperature Precipitation Wind Pressure Humidity
    00:00 +15°C° 0 mm 2 mps 755 mmHg 92%
    01:00 +15°C° 0 mm 2 mps 755 mmHg 94%
    02:00 +14°C° 0 mm 2 mps 755 mmHg 95%
    03:00 +14°C° 0 mm 2 mps 755 mmHg 95%
    04:00 +13°C° 0 mm 2 mps 755 mmHg 96%
    05:00 +13°C° 0 mm 2 mps 755 mmHg 96%
    06:00 +15°C° 0 mm 2 mps 756 mmHg 89%
    07:00 +16°C° 0 mm 2 mps 756 mmHg 82%
    08:00 +18°C° 0 mm 3 mps 756 mmHg 75%
    09:00 +19°C° 0 mm 3 mps 756 mmHg 69%
    10:00 +20°C° 0 mm 3 mps 756 mmHg 63%
    11:00 +21°C° 0 mm 3 mps 756 mmHg 57%
    12:00 +21°C° 0 mm 3 mps 756 mmHg 56%
    13:00 +22°C° 0 mm 3 mps 757 mmHg 55%
    14:00 +22°C° 0 mm 3 mps 757 mmHg 54%
    15:00 +23°C° 0 mm 2 mps 757 mmHg 59%
    16:00 +21°C° 0 mm 2 mps 756 mmHg 63%
    17:00 +21°C° 0 mm 2 mps 756 mmHg 67%
    18:00 +19°C° 0 mm 2 mps 757 mmHg 73%
    19:00 +17°C° 0 mm 2 mps 757 mmHg 78%
    20:00 +15°C° 0 mm 1 mps 757 mmHg 83%
    21:00 +15°C° 0 mm 1 mps 758 mmHg 85%
    22:00 +14°C° 0 mm 1 mps 758 mmHg 87%
    23:00 +13°C° 0 mm 1 mps 758 mmHg 89%

    Tomorrow, 26 August, Monday

    Time Temperature Precipitation Wind Pressure Humidity
    00:00 +13°C° 0 mm 1 mps 758 mmHg 90%
    01:00 +13°C° 0 mm 1 mps 758 mmHg 91%
    02:00 +12°C° 0 mm 1 mps 758 mmHg 92%
    03:00 +12°C° 0 mm 1 mps 758 mmHg 92%
    04:00 +11°C° 0 mm 0 mps 758 mmHg 93%
    05:00 +11°C° 0 mm 0 mps 758 mmHg 93%
    06:00 +13°C° 0 mm 0 mps 758 mmHg 86%
    07:00 +15°C° 0 mm 0 mps 758 mmHg 80%
    08:00 +17°C° 0 mm 0 mps 758 mmHg 74%
    09:00 +18°C° 0 mm 0 mps 758 mmHg 68%
    10:00 +20°C° 0 mm 0 mps 758 mmHg 63%
    11:00 +23°C° 0 mm 1 mps 758 mmHg 57%
    12:00 +23°C° 0 mm 1 mps 757 mmHg 56%
    13:00 +24°C° 0 mm 1 mps 757 mmHg 54%
    14:00 +24°C° 0 mm 2 mps 757 mmHg 52%
    15:00 +23°C° 0 mm 2 mps 756 mmHg 57%
    16:00 +23°C° 0 mm 2 mps 756 mmHg 61%
    17:00 +22°C° 0 mm 1 mps 755 mmHg 65%
    18:00 +21°C° 0 mm 1 mps 755 mmHg 70%
    19:00 +19°C° 0 mm 1 mps 755 mmHg 75%
    20:00 +16°C° 0 mm 2 mps 755 mmHg 80%
    21:00 +15°C° 0 mm 2 mps 755 mmHg 82%
    22:00 +15°C° 0 mm 2 mps 755 mmHg 85%
    23:00 +14°C° 0 mm 2 mps 755 mmHg 87%

    Day after tomorrow, 27 August, Tuesday

    Time Temperature Precipitation Wind Pressure Humidity
    00:00 +14°C° 0 mm 2 mps 754 mmHg 88%
    01:00 +14°C° 0 mm 2 mps 754 mmHg 89%
    02:00 +14°C° 0 mm 2 mps 753 mmHg 90%
    03:00 +13°C° 0 mm 3 mps 753 mmHg 89%
    04:00 +13°C° 0 mm 3 mps 753 mmHg 88%
    05:00 +13°C° 0 mm 3 mps 753 mmHg 88%
    06:00 +15°C° 0 mm 4 mps 752 mmHg 85%
    07:00 +17°C° 0 mm 4 mps 752 mmHg 82%
    08:00 +18°C° 0 mm 4 mps 752 mmHg 80%
    09:00 +19°C° 0.2 mm 5 mps 752 mmHg 77%
    10:00 +21°C° 0.2 mm 5 mps 751 mmHg 74%
    11:00 +22°C° 0.2 mm 5 mps 751 mmHg 71%
    12:00 +22°C° 0.1 mm 5 mps 751 mmHg 66%
    13:00 +22°C° 0.1 mm 5 mps 751 mmHg 61%
    14:00 +23°C° 0.1 mm 5 mps 751 mmHg 56%
    15:00 +22°C° 0 mm 5 mps 751 mmHg 59%
    16:00 +21°C° 0 mm 4 mps 751 mmHg 62%
    17:00 +20°C° 0 mm 4 mps 751 mmHg 65%
    18:00 +19°C° 0 mm 3 mps 751 mmHg 68%
    19:00 +17°C° 0 mm 3 mps 751 mmHg 71%
    20:00 +14°C° 0 mm 3 mps 752 mmHg 75%
    21:00 +14°C° 0 mm 3 mps 752 mmHg 78%
    22:00 +13°C° 0 mm 3 mps 752 mmHg 81%
    23:00 +13°C° 0 mm 3 mps 752 mmHg 84%

    28 August, Wednesday

    Time Temperature Precipitation Wind Pressure Humidity
    00:00 +12°C° 0 mm 3 mps 753 mmHg 86%
    01:00 +11°C° 0 mm 3 mps 753 mmHg 87%
    02:00 +11°C° 0 mm 3 mps 753 mmHg 89%
    03:00 +10°C° 0 mm 3 mps 753 mmHg 90%
    04:00 +9°C° 0 mm 3 mps 753 mmHg 91%
    05:00 +8°C° 0 mm 3 mps 754 mmHg 92%
    06:00 +9°C° 0 mm 3 mps 754 mmHg 84%
    07:00 +10°C° 0 mm 4 mps 754 mmHg 75%
    08:00 +12°C° 0 mm 4 mps 754 mmHg 67%
    09:00 +13°C° 0 mm 4 mps 754 mmHg 61%
    10:00 +14°C° 0 mm 4 mps 754 mmHg 56%
    11:00 +15°C° 0 mm 4 mps 754 mmHg 50%
    12:00 +15°C° 0 mm 4 mps 754 mmHg 48%
    13:00 +16°C° 0 mm 5 mps 754 mmHg 47%
    14:00 +16°C° 0 mm 5 mps 754 mmHg 45%
    15:00 +17°C° 0 mm 4 mps 754 mmHg 49%
    16:00 +15°C° 0 mm 4 mps 754 mmHg 54%
    17:00 +14°C° 0 mm 3 mps 755 mmHg 59%
    18:00 +12°C° 0 mm 3 mps 755 mmHg 65%
    19:00 +10°C° 0 mm 3 mps 755 mmHg 71%
    20:00 +9°C° 0 mm 2 mps 755 mmHg 76%
    21:00 +8°C° 0 mm 2 mps 756 mmHg 79%
    22:00 +7°C° 0 mm 2 mps 756 mmHg 81%
    23:00 +7°C° 0 mm 2 mps 756 mmHg 84%

    29 August, Thursday

    Time Temperature Precipitation Wind Pressure Humidity
    00:00 +6°C° 0 mm 2 mps 756 mmHg 86%
    01:00 +6°C° 0 mm 2 mps 756 mmHg 89%
    02:00 +5°C° 0 mm 2 mps 756 mmHg 91%
    03:00 +5°C° 0 mm 2 mps 757 mmHg 92%
    04:00 +5°C° 0 mm 2 mps 757 mmHg 93%
    05:00 +5°C° 0 mm 2 mps 757 mmHg 94%
    06:00 +7°C° 0 mm 2 mps 757 mmHg 85%
    07:00 +9°C° 0 mm 2 mps 757 mmHg 77%
    08:00 +11°C° 0 mm 3 mps 758 mmHg 68%
    09:00 +12°C° 0 mm 3 mps 758 mmHg 63%
    10:00 +13°C° 0 mm 3 mps 757 mmHg 58%
    11:00 +14°C° 0 mm 3 mps 757 mmHg 53%
    12:00 +16°C° 0 mm 3 mps 757 mmHg 51%
    13:00 +16°C° 0 mm 3 mps 757 mmHg 49%
    14:00 +17°C° 0 mm 3 mps 756 mmHg 47%
    15:00 +17°C° 0 mm 3 mps 756 mmHg 51%
    16:00 +16°C° 0 mm 2 mps 756 mmHg 56%
    17:00 +16°C° 0 mm 2 mps 756 mmHg 60%
    18:00 +14°C° 0 mm 2 mps 757 mmHg 64%
    19:00 +12°C° 0 mm 2 mps 757 mmHg 69%
    20:00 +9°C° 0 mm 2 mps 757 mmHg 73%
    21:00 +9°C° 0 mm 1 mps 757 mmHg 75%
    22:00 +8°C° 0 mm 1 mps 757 mmHg 77%
    23:00 +8°C° 0 mm 1 mps 757 mmHg 79%

    30 August, Friday

    Time Temperature Precipitation Wind Pressure Humidity
    00:00 +7°C° 0 mm 1 mps 757 mmHg 81%
    01:00 +7°C° 0 mm 1 mps 757 mmHg 84%
    02:00 +6°C° 0 mm 1 mps 757 mmHg 86%
    03:00 +6°C° 0 mm 1 mps 757 mmHg 87%
    04:00 +6°C° 0 mm 1 mps 758 mmHg 87%
    05:00 +6°C° 0 mm 1 mps 758 mmHg 88%
    06:00 +8°C° 0 mm 1 mps 758 mmHg 80%
    07:00 +10°C° 0 mm 1 mps 758 mmHg 73%
    08:00 +12°C° 0 mm 1 mps 757 mmHg 66%
    09:00 +14°C° 0 mm 1 mps 757 mmHg 60%
    10:00 +15°C° 0 mm 1 mps 757 mmHg 53%
    11:00 +16°C° 0 mm 1 mps 757 mmHg 47%
    12:00 +17°C° 0 mm 2 mps 757 mmHg 45%
    13:00 +18°C° 0 mm 2 mps 756 mmHg 44%
    14:00 +18°C° 0 mm 2 mps 756 mmHg 42%
    15:00 +18°C° 0 mm 2 mps 755 mmHg 48%
    16:00 +17°C° 0 mm 2 mps 755 mmHg 55%
    17:00 +18°C° 0 mm 1 mps 755 mmHg 61%
    18:00 +16°C° 0 mm 2 mps 755 mmHg 66%
    19:00 +14°C° 0 mm 2 mps 755 mmHg 71%
    20:00 +13°C° 0 mm 2 mps 754 mmHg 75%
    21:00 +12°C° 0 mm 2 mps 754 mmHg 80%
    22:00 +12°C° 0 mm 2 mps 754 mmHg 86%
    23:00 +11°C° 0 mm 3 mps 754 mmHg 91%
    Show more